GAOFEN-5 01

Last updated on Thu Dec 18 2025 00:02:32 GMT+0000 (Coordinated Universal Time)

1 43461U 18043A 25351.51296463 .00000382 00000+0 89013-4 0 9993 2 43461 98.4330 314.5636 0000664 316.2032 43.9115 14.60415021405172
UTC large
Height (km)
Speed (km/s)
/
Latitude / Longitude
Inclination (degrees)
Orbital Period (minutes)
Azimuth
Elevation
Range (km)
Doppler Factor

Next 0 passes for location: London (51.5072 / 0.1276)

Sorry there are no passes over London.